TimeCEST,TemperatureF,Dew PointF,Humidity,Sea Level PressureIn,VisibilityMPH,Wind Direction,Wind SpeedMPH,Gust SpeedMPH,PrecipitationIn,Events,Conditions,WindDirDegrees,DateUTC
12:00 AM,64.4,55.4,73,30.15,-9999.0,South,8.1,-,N/A,,Clear,190,2012-10-07 22:00:00
12:30 AM,64.4,55.4,73,30.15,-9999.0,SSW,11.5,-,N/A,,Clear,200,2012-10-07 22:30:00
1:00 AM,64.4,55.4,73,30.15,-9999.0,SSW,10.4,-,N/A,,Clear,200,2012-10-07 23:00:00
1:30 AM,64.4,55.4,73,30.15,-9999.0,SSW,11.5,-,N/A,,Clear,200,2012-10-07 23:30:00
2:00 AM,64,56,69,30.13,22,South,6.9,,,,Scattered Clouds,180,2012-10-08 00:00:00
2:00 AM,64.4,53.6,68,30.12,-9999.0,South,6.9,-,N/A,,Clear,180,2012-10-08 00:00:00
2:30 AM,62.6,53.6,72,30.12,-9999.0,South,6.9,-,N/A,,Clear,170,2012-10-08 00:30:00
3:00 AM,62.6,53.6,72,30.12,-9999.0,South,6.9,-,N/A,,Clear,180,2012-10-08 01:00:00
3:30 AM,62.6,53.6,72,30.12,-9999.0,South,5.8,-,N/A,,Clear,170,2012-10-08 01:30:00
4:00 AM,62.6,53.6,72,30.12,-9999.0,South,6.9,-,N/A,,Clear,180,2012-10-08 02:00:00
4:30 AM,62.6,53.6,72,30.12,-9999.0,South,6.9,-,N/A,,Clear,190,2012-10-08 02:30:00
5:00 AM,60.8,53.6,77,30.09,-9999.0,Variable,1.2,-,N/A,,Clear,0,2012-10-08 03:00:00
5:30 AM,60.8,55.4,82,30.09,-9999.0,Variable,1.2,-,N/A,,Clear,0,2012-10-08 03:30:00
6:00 AM,62.6,55.4,77,30.09,-9999.0,South,12.7,-,N/A,,Clear,180,2012-10-08 04:00:00
6:30 AM,62.6,55.4,77,30.09,6.2,South,12.7,-,N/A,,Scattered Clouds,180,2012-10-08 04:30:00
7:00 AM,60.8,55.4,82,30.09,6.2,South,6.9,-,N/A,,Mostly Cloudy,170,2012-10-08 05:00:00
7:30 AM,60.8,55.4,82,30.09,6.2,South,6.9,-,N/A,,Mostly Cloudy,180,2012-10-08 05:30:00
8:00 AM,62,59,87,30.10,2,South,6.9,,,Rain,Light Drizzle,170,2012-10-08 06:00:00
8:00 AM,60.8,57.2,88,30.09,1.9,South,9.2,-,N/A,,Mostly Cloudy,190,2012-10-08 06:00:00
8:30 AM,59.0,57.2,94,30.09,2.2,South,9.2,-,N/A,,Drizzle,180,2012-10-08 06:30:00
9:00 AM,59.0,57.2,94,30.12,1.9,South,11.5,-,N/A,,Light Drizzle,190,2012-10-08 07:00:00
9:14 AM,59.0,59.0,100,30.12,0.4,South,11.5,-,N/A,Fog,Light Drizzle,180,2012-10-08 07:14:00
9:30 AM,59.0,59.0,100,30.12,0.1,South,10.4,-,N/A,Fog,Fog,180,2012-10-08 07:30:00
10:00 AM,60.8,59.0,94,30.12,0.1,South,10.4,-,N/A,Fog,Fog,180,2012-10-08 08:00:00
10:30 AM,60.8,59.0,94,30.12,0.1,South,9.2,-,N/A,Fog-Rain,Fog,180,2012-10-08 08:30:00
11:00 AM,60.8,60.8,100,30.15,0.1,South,10.4,-,N/A,Fog-Rain,Light Fog,190,2012-10-08 09:00:00
11:30 AM,60.8,60.8,100,30.15,0.1,South,9.2,-,N/A,Fog,Fog,180,2012-10-08 09:30:00
12:00 PM,60.8,60.8,100,30.15,0.1,South,8.1,-,N/A,Fog,Fog,180,2012-10-08 10:00:00
12:30 PM,60.8,60.8,100,30.15,0.1,South,8.1,-,N/A,Fog,Fog,190,2012-10-08 10:30:00
1:00 PM,62.6,62.6,100,30.15,0.1,South,10.4,-,N/A,Fog,Fog,190,2012-10-08 11:00:00
1:30 PM,62.6,62.6,100,30.15,0.2,South,9.2,-,N/A,Fog,Fog,190,2012-10-08 11:30:00
1:37 PM,62.6,62.6,100,30.15,0.5,South,9.2,-,N/A,Fog,Fog,190,2012-10-08 11:37:00
2:00 PM,62.6,62.6,100,30.15,1.2,South,6.9,-,N/A,Fog,Mist,180,2012-10-08 12:00:00
2:30 PM,64.4,64.4,100,30.15,3.1,South,5.8,-,N/A,Fog,Mostly Cloudy,180,2012-10-08 12:30:00
3:00 PM,64.4,64.4,100,30.15,4.3,South,5.8,-,N/A,,Mostly Cloudy,180,2012-10-08 13:00:00
3:30 PM,66.2,66.2,100,30.12,4.3,South,9.2,-,N/A,,Mostly Cloudy,180,2012-10-08 13:30:00
4:00 PM,66.2,66.2,100,30.12,6.2,South,8.1,-,N/A,,Mostly Cloudy,180,2012-10-08 14:00:00
4:30 PM,66.2,66.2,100,30.12,6.2,South,8.1,-,N/A,,Mostly Cloudy,180,2012-10-08 14:30:00
5:00 PM,66.2,66.2,100,30.12,6.2,South,9.2,-,N/A,,Mostly Cloudy,180,2012-10-08 15:00:00
5:30 PM,66.2,66.2,100,30.12,6.2,South,6.9,-,N/A,,Mostly Cloudy,170,2012-10-08 15:30:00
6:00 PM,66.2,66.2,100,30.12,6.2,South,8.1,-,N/A,,Mostly Cloudy,190,2012-10-08 16:00:00
6:30 PM,66.2,66.2,100,30.12,6.2,South,8.1,-,N/A,,Mostly Cloudy,190,2012-10-08 16:30:00
7:00 PM,66.2,66.2,100,30.12,6.2,South,6.9,-,N/A,,Mostly Cloudy,190,2012-10-08 17:00:00
7:30 PM,66.2,66.2,100,30.12,6.2,South,4.6,-,N/A,,Mostly Cloudy,180,2012-10-08 17:30:00
8:00 PM,65,64,94,30.12,2,South,6.9,,,,Mist,180,2012-10-08 18:00:00
8:00 PM,64.4,64.4,100,30.12,5.6,South,5.8,-,N/A,,Mostly Cloudy,190,2012-10-08 18:00:00
8:16 PM,64.4,64.4,100,30.12,3.1,South,5.8,-,N/A,,Mostly Cloudy,190,2012-10-08 18:16:00
8:30 PM,64.4,64.4,100,30.12,3.1,South,4.6,-,N/A,,Mostly Cloudy,190,2012-10-08 18:30:00
9:00 PM,64.4,64.4,100,30.12,3.1,SSW,5.8,-,N/A,,Mostly Cloudy,210,2012-10-08 19:00:00
9:30 PM,64.4,64.4,100,30.12,3.1,SSW,3.5,-,N/A,,Mostly Cloudy,200,2012-10-08 19:30:00
10:00 PM,64.4,64.4,100,30.12,3.1,South,3.5,-,N/A,Fog,Mostly Cloudy,190,2012-10-08 20:00:00
10:30 PM,62.6,62.6,100,30.12,3.1,South,4.6,-,N/A,Fog,Mostly Cloudy,190,2012-10-08 20:30:00
11:00 PM,62.6,62.6,100,30.12,3.1,South,4.6,-,N/A,Fog,Mostly Cloudy,180,2012-10-08 21:00:00
11:30 PM,62.6,62.6,100,30.12,3.1,SSW,3.5,-,N/A,Fog,Mostly Cloudy,200,2012-10-08 21:30:00